Tracking 35035 objects as of 16-Aug-2026
HD Live streaming from Space Station
objects crossing your sky now

CHAMRAN-1

Track CHAMRAN-1 now!
10-day predictions
CHAMRAN-1 is classified as:


NORAD ID: 61072
Int'l Code: 2024-165B
Launch date: September 14, 2024
Source: Iran (IRAN)
Launch site: Sharud Missile Test Site (SMTS)

Uplink (MHz):
Downlink (MHz): 436.740
Beacon (MHz):
Mode: 38k4 FSK
Call sign:
Status: Inactive

Your satellite tracking list
Your tracking list is empty




NASA's NSSDC Master Catalog

Two Line Element Set (TLE):
1 61072U 24165B   26228.22219000  .00002768  00000-0  16816-3 0  9998
2 61072  64.0744 204.6694 0058613 303.6715  55.8819 15.11475557105735
Source of the keplerian elements: AFSPC